Notices

What's New in latest Release from April 7th, 2021:

- Updated Glossary, including Speed of Maximum Gust, and Total Hourly Precipitation

- Updated national and regional climate services offices contacts and prices information

- Addition of station inventory lists for 1981-2010, 1971-2000, and 1961-1990 Normals.

If you haven't already, please take our survey and provide feedback about our website: https://eccc.sondage-survey.ca/f/LanguageSelection.aspx?s=442ca660-fcf1-47c0-95a9-59707d6fd709

Hourly Data Report for June 12, 2020

TRENTON A
ONTARIO
Current Station Operator: DND

44°07'00.000" N
77°32'00.000" W
86.30 m
6158875
71621
YTR

Download Data

Hourly Data (June 2020)
Hourly Data Report for June 12, 2020
TIME
LST
Temp Definition
°C
Dew Point Definition
°C
Rel Hum Definition
%
Precip. Amount Definition
mm

Wind Dir Definition
10's deg

Wind Spd Definition
km/h
Visibility Definition
km
Stn Press Definition
kPa
Hmdx Definition


Wind Chill Definition


Weather Definition


00:00 16.4 9.2 62   21 17 24.1 100.62     Clear
01:00 16.2 8.9 62   21 17 24.1 100.57     Clear
02:00 15.4 8.4 63   24 11 24.1 100.59     Mainly Clear
03:00 16.7 8.7 59   22 11 24.1 100.55     Mainly Clear
04:00 15.2 8.6 65   24 15 24.1 100.62     Mainly Clear
05:00 14.2 7.1 62   25 13 24.1 100.64     Mainly Clear
06:00 15.2 5.4 52   28 18 24.1 100.72     Clear
07:00 15.2 4.5 49   29 18 24.1 100.77     Clear
08:00 14.8 3.5 47   30 28 24.1 100.86     Mainly Clear
09:00 15.0 2.7 44   30 24 24.1 100.91     Mostly Cloudy
10:00 14.9 2.8 44   27 28 24.1 100.96     Mostly Cloudy
11:00 15.6 2.7 42   28 22 24.1 101.00     Mainly Clear
12:00 16.1 3.3 42   30 21 24.1 101.02     Mainly Clear
13:00 17.0 3.8 41   27 26 24.1 101.02     Mainly Clear
14:00 17.7 4.0 40   30 24 24.1 100.99     Mainly Clear
15:00 16.9 3.5 41   28 26 24.1 101.00     Mainly Clear
16:00 16.0 2.9 41   30 26 24.1 101.03     Mainly Clear
17:00 14.9 2.3 43   33 24 24.1 101.07     Mainly Clear
18:00 15.2 4.8 50   30 24 24.1 101.09     Mainly Clear
19:00 14.3 5.2 54   31 15 24.1 101.13     Mainly Clear
20:00 12.9 5.5 61   29 11 24.1 101.16     Mainly Clear
21:00 12.1 6.2 67   28 8 24.1 101.22     Mostly Cloudy
22:00 11.9 7.0 72   34 11 24.1 101.28     Mostly Cloudy
23:00 9.8 4.6 70   1 18 24.1 101.36     Mainly Clear

Notes on Data Quality.

Legend

  • E = Estimated
  • M = Missing
  • NA = Not Available*
  • [empty] = Indicates an unobserved value
Date modified: